BEIDOU 16

Last updated on Sun Feb 19 2023 00:02:46 GMT+0000 (Coordinated Universal Time)

1 38953U 12059A 23049.58313130 -.00000184 00000+0 00000+0 0 9999 2 38953 1.5347 82.4287 0010988 297.8854 61.8342 1.00268201 37723
UTC large
Height (km)
Speed (km/s)
/
Latitude / Longitude
Inclination (degrees)
Orbital Period (minutes)
Azimuth
Elevation
Range (km)
Doppler Factor

Next 0 passes for location: London (51.5072 / 0.1276)

Sorry there are no passes over London.
BEIDOU 16